Temp
9 9 9 8 8 8 8 8 8 8 8 8 8 7 7 7 7 6 6 7 7 8 7 8 9 10 10 10 11 12 11 12 13 15 18 21 22 24 24 24 23 21 19 19 15
9 9 9 8 8 8 8 8 8 8 8 7 7 7 7 7 7 6 7 7 7 7 7 7 9 9 10 11 10 11 11 12 15 16 18 20 21 23 22 22 20 18 16 16 14
9 8 8 8 8 8 8 8 8 7 7 7 7 6 7 7 6 7 8 8 7 7 6 7 8 9 10 11 11 11 10 13 15 16 18 18 19 20 21 19 20 17 14 14 13
9 8 8 8 8 8 8 7 7 7 7 7 6 6 6 6 8 8 8 7 7 7 7 6 7 8 9 9 11 10 12 13 14 15 17 16 18 18 20 21 21 19 16 14 13
9 8 8 8 8 8 7 7 7 7 7 7 6 6 6 6 7 7 7 7 7 7 6 7 7 8 8 10 10 10 11 12 14 15 15 16 16 16 17 21 20 18 15 13 12
9 9 8 8 8 8 7 7 7 7 7 6 6 6 5 6 7 7 7 7 6 5 6 7 7 8 9 9 9 11 11 11 11 12 15 15 16 17 18 20 18 17 14 13 12
9 9 8 8 8 8 8 7 7 7 7 6 6 6 5 6 6 6 6 5 5 5 6 6 7 7 8 8 9 9 9 10 11 11 13 15 15 15 17 17 17 15 14 13 13
9 9 9 9 8 8 8 7 7 7 7 6 6 5 5 6 7 6 6 5 5 5 5 6 6 6 8 8 8 8 8 8 10 10 11 14 13 15 17 17 17 16 15 14 14
9 9 9 9 9 8 8 7 7 7 7 6 6 5 6 7 7 6 6 5 4 5 5 5 6 7 7 6 5 6 6 7 9 10 9 11 13 15 17 16 16 16 15 15 15
9 9 9 9 9 8 8 8 7 7 6 5 5 6 7 7 7 6 6 5 5 4 4 5 6 6 6 6 5 6 6 8 8 11 11 9 14 15 16 16 16 16 15 15 14
9 9 9 9 8 8 8 8 7 6 6 8 7 7 7 6 6 6 6 5 5 5 5 6 5 5 6 6 7 7 7 8 9 11 8 9 14 15 16 16 16 16 15 14 13
9 9 9 8 8 7 7 6 6 5 6 7 6 6 7 6 6 6 5 4 5 6 7 5 5 7 8 8 7 7 6 6 8 9 8 12 14 16 14 15 16 16 15 14 13
9 9 9 8 8 7 6 6 6 5 6 7 7 7 6 6 7 7 6 5 4 5 7 5 7 5 7 6 5 5 5 7 7 10 10 13 13 16 15 16 17 16 15 14 13
9 9 8 8 7 6 5 6 6 5 4 4 8 7 7 7 7 8 7 6 4 5 4 4 5 6 6 5 5 6 7 7 8 11 10 14 9 12 14 14 15 16 15 14 13
9 9 8 8 7 6 6 6 6 5 7 7 8 7 7 7 8 8 8 7 8 6 5 6 5 6 6 6 6 6 11 10 10 12 12 13 10 13 14 14 14 14 16 14 13
9 9 8 7 6 6 6 6 5 6 8 5 8 8 9 10 10 10 9 7 8 7 8 7 5 5 6 9 8 8 10 9 10 11 9 12 14 12 13 14 14 14 16 15 14
9 8 8 7 6 6 6 5 6 8 9 8 8 8 8 10 10 10 9 8 8 7 7 7 6 8 7 8 9 9 8 8 8 7 8 13 13 14 15 15 15 14 15 16 15
8 8 7 7 6 6 5 6 7 9 10 11 8 9 9 10 10 10 9 9 10 9 7 7 8 8 10 9 10 10 11 7 9 8 8 11 11 13 12 14 17 16 15 16 14
7 7 6 7 6 6 5 7 8 10 10 10 10 9 9 10 9 10 10 11 11 10 8 8 8 11 11 11 11 12 9 10 9 10 9 9 12 13 12 12 14 16 16 15 14
6 6 5 6 6 5 7 8 10 11 10 10 9 12 10 11 9 11 11 11 11 11 11 10 8 11 12 12 12 12 11 9 8 9 11 9 13 9 10 11 12 11 12 13 13
6 6 5 5 5 5 7 9 11 10 10 10 10 10 11 11 11 11 11 12 11 10 11 10 10 10 11 11 10 11 11 11 11 10 9 10 11 12 10 11 10 10 12 12 11
6 7 5 5 5 8 7 11 9 11 10 10 10 10 10 10 10 11 11 11 10 10 10 11 9 9 11 11 11 11 12 11 10 11 9 11 10 12 12 11 11 12 12 11 10
6 7 4 4 6 8 11 10 10 10 10 10 10 11 11 10 9 11 11 10 10 10 9 9 10 8 10 10 11 11 11 11 11 11 12 11 11 12 12 11 13 11 11 10 9
6 7 3 3 5 7 9 11 10 10 10 11 10 10 10 10 11 10 10 11 9 10 9 8 10 10 8 7 9 11 11 12 12 9 12 11 12 11 12 11 10 11 11 10 9
6 8 8 7 8 8 10 10 10 10 9 10 10 10 10 9 10 11 11 10 9 10 9 9 8 8 9 10 10 10 11 12 12 11 12 11 12 14 10 10 11 12 11 10 9
7 8 8 9 10 10 9 10 10 11 11 10 9 10 10 9 9 9 9 10 10 10 10 9 7 9 8 10 9 9 10 12 12 12 11 12 13 12 13 13 12 12 11 10 9
6 7 7 10 10 9 10 10 11 11 11 10 9 9 9 9 8 8 8 8 8 8 10 9 8 7 8 10 9 8 10 11 12 12 13 13 13 12 12 11 12 12 11 10 10
Height
1537 1535 1533 1532 1530 1530 1528 1526 1526 1525 1523 1521 1518 1516 1514 1511 1510 1509 1509 1511 1510 1508 1508 1508 1510 1513 1514 1515 1515 1515 1514 1505 1503 1500 1493 1482 1481 1478 1480 1484 1485 1487 1491 1492 1500
1536 1534 1532 1531 1530 1528 1527 1526 1526 1524 1522 1520 1517 1514 1512 1510 1508 1506 1507 1506 1506 1506 1507 1509 1510 1511 1511 1511 1513 1512 1506 1501 1500 1497 1491 1482 1482 1478 1480 1483 1486 1487 1490 1495 1500
1534 1533 1531 1530 1529 1528 1526 1526 1525 1523 1521 1518 1516 1513 1512 1509 1508 1505 1505 1505 1504 1504 1505 1507 1508 1509 1508 1508 1508 1506 1502 1499 1497 1495 1490 1487 1479 1479 1475 1482 1484 1489 1489 1495 1501
1533 1531 1530 1530 1529 1526 1525 1525 1523 1521 1519 1517 1515 1512 1511 1510 1510 1505 1505 1504 1504 1503 1504 1505 1507 1507 1506 1502 1502 1505 1500 1500 1498 1493 1491 1490 1484 1479 1476 1476 1481 1484 1488 1493 1498
1531 1530 1529 1528 1526 1525 1524 1523 1521 1520 1517 1515 1513 1511 1511 1510 1507 1504 1503 1502 1501 1501 1503 1503 1504 1506 1503 1500 1502 1500 1497 1497 1495 1491 1491 1490 1485 1483 1476 1475 1480 1480 1486 1492 1498
1529 1528 1527 1525 1524 1522 1521 1520 1519 1517 1515 1513 1511 1511 1510 1509 1504 1503 1502 1500 1499 1499 1500 1500 1500 1502 1499 1497 1499 1495 1494 1497 1494 1491 1488 1488 1483 1483 1475 1473 1478 1479 1484 1492 1497
1527 1526 1524 1523 1521 1520 1518 1517 1515 1514 1512 1510 1510 1509 1509 1507 1503 1501 1500 1497 1496 1496 1496 1496 1497 1499 1496 1497 1495 1495 1495 1494 1491 1490 1487 1486 1480 1477 1477 1476 1478 1483 1485 1492 1498
1525 1524 1522 1520 1518 1516 1515 1513 1512 1510 1509 1508 1508 1508 1506 1503 1502 1500 1497 1495 1492 1490 1490 1492 1493 1493 1493 1494 1494 1495 1495 1496 1487 1490 1487 1486 1482 1474 1475 1476 1479 1482 1486 1491 1497
1522 1521 1519 1517 1515 1513 1511 1509 1508 1507 1507 1506 1507 1507 1503 1501 1499 1498 1494 1490 1485 1484 1483 1487 1490 1489 1491 1493 1497 1498 1497 1492 1488 1487 1491 1485 1482 1470 1469 1472 1477 1480 1484 1488 1494
1519 1518 1516 1514 1512 1510 1508 1507 1505 1505 1505 1505 1506 1509 1502 1500 1496 1493 1491 1486 1484 1483 1482 1486 1488 1488 1489 1491 1491 1490 1492 1487 1484 1483 1486 1484 1474 1468 1461 1465 1472 1477 1482 1485 1490
1516 1515 1514 1512 1510 1508 1507 1506 1508 1507 1505 1504 1504 1501 1499 1497 1493 1491 1488 1486 1485 1485 1484 1484 1485 1482 1484 1484 1485 1485 1485 1481 1474 1476 1490 1481 1469 1464 1463 1464 1467 1473 1479 1482 1488
1514 1513 1512 1510 1509 1507 1507 1508 1507 1509 1504 1500 1500 1499 1497 1495 1492 1489 1488 1486 1485 1482 1482 1486 1481 1478 1479 1479 1482 1483 1485 1477 1470 1471 1480 1469 1461 1457 1460 1461 1463 1468 1475 1480 1485
1511 1511 1510 1509 1508 1507 1506 1507 1506 1507 1505 1498 1498 1496 1495 1495 1491 1488 1488 1485 1486 1483 1479 1480 1475 1478 1477 1478 1481 1480 1478 1472 1471 1465 1467 1456 1463 1453 1455 1458 1460 1465 1472 1477 1481
1509 1509 1508 1508 1509 1507 1507 1506 1506 1506 1508 1503 1495 1495 1494 1492 1489 1485 1485 1486 1484 1481 1482 1481 1475 1474 1472 1474 1477 1472 1459 1461 1464 1459 1464 1449 1478 1456 1453 1456 1457 1461 1468 1474 1480
1507 1507 1507 1506 1507 1508 1508 1506 1505 1507 1502 1497 1493 1493 1491 1492 1488 1482 1482 1482 1478 1479 1481 1474 1472 1470 1467 1466 1470 1465 1448 1451 1455 1448 1451 1450 1466 1451 1449 1455 1455 1457 1464 1471 1476
1506 1505 1506 1506 1506 1507 1506 1506 1506 1508 1496 1500 1492 1492 1488 1485 1482 1481 1480 1480 1477 1474 1471 1469 1470 1469 1464 1458 1461 1454 1451 1452 1455 1450 1465 1444 1447 1448 1446 1444 1452 1456 1461 1467 1473
1504 1504 1505 1505 1507 1506 1506 1506 1508 1500 1495 1494 1491 1490 1487 1481 1480 1479 1478 1477 1475 1474 1469 1468 1466 1463 1464 1459 1456 1456 1458 1458 1465 1472 1467 1439 1449 1435 1427 1435 1442 1451 1458 1464 1469
1502 1502 1504 1504 1504 1505 1506 1507 1507 1493 1489 1487 1489 1487 1485 1480 1477 1477 1475 1472 1468 1469 1470 1467 1461 1460 1456 1457 1450 1449 1447 1461 1460 1463 1462 1447 1452 1438 1433 1429 1433 1442 1451 1460 1466
1501 1501 1502 1503 1504 1505 1507 1503 1495 1488 1488 1487 1483 1485 1481 1478 1480 1475 1470 1466 1465 1466 1471 1466 1461 1452 1451 1449 1450 1444 1455 1447 1453 1449 1460 1455 1441 1435 1434 1433 1433 1440 1449 1457 1463
1500 1501 1502 1502 1503 1505 1505 1497 1488 1487 1488 1487 1486 1476 1478 1473 1477 1470 1464 1465 1465 1464 1465 1463 1465 1451 1448 1447 1446 1447 1451 1461 1458 1460 1453 1455 1438 1450 1441 1440 1440 1441 1446 1454 1461
1499 1501 1499 1501 1503 1505 1501 1491 1485 1486 1487 1487 1482 1480 1476 1473 1472 1470 1466 1464 1466 1465 1464 1463 1460 1456 1451 1452 1456 1451 1453 1450 1450 1449 1458 1451 1445 1432 1434 1435 1441 1445 1449 1453 1460
1497 1499 1498 1500 1504 1498 1494 1486 1486 1484 1486 1486 1484 1482 1479 1476 1472 1469 1468 1466 1468 1467 1466 1461 1463 1461 1453 1450 1451 1452 1449 1453 1458 1455 1456 1440 1448 1431 1430 1434 1439 1445 1450 1456 1462
1495 1496 1496 1499 1497 1491 1485 1486 1485 1483 1483 1482 1481 1478 1477 1477 1478 1468 1467 1467 1468 1467 1468 1465 1461 1468 1456 1455 1451 1450 1449 1449 1450 1448 1443 1443 1448 1436 1435 1436 1442 1447 1452 1457 1463
1493 1493 1495 1497 1493 1492 1486 1480 1481 1480 1481 1480 1479 1478 1477 1474 1470 1471 1469 1466 1468 1467 1467 1467 1461 1460 1469 1468 1460 1450 1449 1446 1447 1457 1445 1444 1440 1443 1440 1441 1444 1449 1454 1458 1463
1489 1486 1484 1488 1486 1486 1484 1480 1479 1478 1480 1479 1477 1476 1475 1474 1469 1466 1465 1466 1466 1466 1465 1466 1466 1464 1459 1455 1454 1453 1449 1448 1449 1447 1449 1446 1444 1435 1440 1441 1444 1449 1455 1459 1464
1485 1484 1483 1482 1480 1482 1481 1478 1476 1474 1475 1475 1477 1473 1473 1475 1473 1472 1471 1467 1464 1465 1463 1464 1468 1461 1461 1454 1455 1455 1449 1446 1447 1446 1446 1443 1442 1434 1437 1441 1446 1450 1455 1460 1463
1481 1480 1482 1479 1477 1479 1475 1473 1472 1473 1473 1474 1474 1475 1473 1473 1472 1471 1471 1470 1469 1469 1463 1465 1466 1469 1461 1454 1454 1457 1443 1443 1444 1443 1441 1444 1443 1439 1441 1443 1446 1449 1453 1458 1461
Wind_Speed
8 9 10 10 9 9 9 10 11 13 16 19 21 21 19 19 17 13 10 7 10 13 16 12 6 10 13 17 16 17 9 13 17 17 13 28 13 28 12 12 6 11 6 7 30
8 9 10 10 9 9 8 9 12 15 18 20 21 20 17 16 15 12 14 17 19 15 14 10 11 11 16 13 12 11 8 17 13 17 15 26 25 21 6 6 4 12 11 23 38
8 8 9 10 9 7 7 10 12 16 19 20 20 16 13 11 10 3 9 10 10 9 10 11 15 17 19 21 21 13 18 14 18 30 28 20 20 20 14 8 14 18 30 29 40
7 8 9 9 9 8 9 11 13 17 20 20 17 13 10 5 5 6 10 14 9 8 9 10 12 16 8 11 24 16 22 24 27 31 22 9 18 15 13 12 14 23 29 30 41
8 8 9 10 10 11 13 14 15 19 20 18 15 11 8 6 11 13 12 16 14 13 9 12 15 15 11 9 17 17 21 25 25 35 28 25 15 15 28 21 13 32 33 29 38
9 10 11 12 13 15 17 17 18 20 18 16 12 10 7 11 8 13 14 17 13 10 14 14 17 19 15 19 17 12 18 21 26 30 24 22 18 16 22 15 9 32 32 30 33
11 12 13 14 15 17 17 17 17 17 15 12 10 10 11 16 7 14 21 16 14 15 18 17 17 18 9 7 14 14 13 13 18 20 19 25 17 13 26 10 26 26 29 29 29
12 13 14 15 17 18 17 15 16 16 13 9 9 7 7 12 13 14 16 17 21 16 20 19 16 19 22 6 2 1 3 6 10 15 24 21 17 9 23 15 22 24 27 29 29
13 13 14 16 16 17 15 15 15 12 6 6 4 4 7 7 7 14 18 21 21 16 16 15 14 12 6 4 1 3 5 8 13 19 11 19 14 20 22 22 21 26 28 30 30
12 13 14 15 15 14 14 13 7 5 4 3 5 7 9 12 16 17 15 15 7 3 5 9 8 5 4 5 9 6 6 8 12 6 21 23 19 19 28 28 25 26 29 31 32
12 12 13 13 12 12 11 6 6 3 5 7 7 10 13 16 12 7 14 9 4 6 5 9 5 10 11 10 10 10 11 13 14 12 14 27 21 11 14 19 23 26 28 28 30
11 10 11 10 10 8 7 5 3 5 7 8 10 11 9 9 8 7 9 3 4 6 8 2 10 12 8 9 12 14 16 20 17 16 15 24 20 13 11 14 23 26 28 30 31
9 9 8 8 8 5 5 4 4 3 5 6 7 7 6 6 7 9 4 2 1 3 10 8 3 3 17 10 11 13 15 14 13 15 24 18 18 13 10 15 23 27 29 30 34
8 7 5 5 4 6 1 7 4 1 2 5 2 3 3 5 5 6 6 3 2 3 6 6 6 9 11 8 10 9 17 22 15 16 7 14 6 10 11 10 10 23 30 32 33
7 6 4 3 4 4 7 5 2 3 3 6 2 4 7 8 11 6 5 4 5 4 3 2 3 6 11 8 12 9 5 12 14 12 6 10 5 9 13 12 12 11 27 32 32
7 6 3 1 3 4 4 1 3 1 3 5 1 5 7 4 5 6 6 4 4 5 8 4 4 3 3 8 15 13 6 3 3 7 6 8 11 12 16 20 11 12 25 30 31
6 5 4 1 3 4 1 3 2 2 3 5 3 4 10 5 6 3 4 5 3 5 2 3 4 2 2 4 10 12 9 2 3 1 4 6 11 6 16 20 17 16 24 28 32
5 4 4 3 2 1 3 2 2 2 3 2 3 8 5 6 3 4 4 4 5 4 3 3 1 2 8 6 4 6 3 1 2 4 3 5 6 3 4 9 33 34 33 30 31
1 1 3 3 2 3 2 2 3 2 1 5 8 4 5 3 2 5 8 3 2 5 4 4 3 4 3 3 4 1 3 4 4 2 3 4 2 3 5 8 5 27 32 33 33
1 1 5 3 4 4 3 4 2 1 1 2 4 1 6 5 2 4 3 4 5 3 4 4 4 1 2 2 3 2 5 3 3 4 5 4 5 5 6 6 3 9 23 31 29
4 2 4 4 4 2 3 5 2 5 4 2 5 5 8 7 5 7 3 1 5 5 6 6 4 3 2 2 3 2 1 2 1 1 1 4 4 5 8 11 11 7 22 28 28
5 3 3 7 3 6 3 3 1 4 7 4 3 7 7 8 6 4 4 5 5 7 5 2 4 3 0 3 2 2 2 2 1 5 4 3 1 5 3 9 15 16 23 24 25
4 2 3 8 3 5 5 3 5 4 5 3 4 5 6 4 4 5 4 4 3 3 5 6 3 3 2 1 2 2 3 3 5 5 4 2 0 3 5 9 18 20 25 25 25
3 2 2 6 9 4 5 6 6 7 6 6 7 7 6 7 7 5 6 1 1 3 2 3 4 2 2 7 3 1 4 2 4 2 7 6 3 5 2 8 13 22 24 26 25
7 4 4 3 8 9 5 6 5 4 5 3 4 8 8 4 7 6 4 4 4 3 3 1 3 5 5 6 3 3 2 4 3 6 3 6 7 1 9 7 15 23 24 25 25
4 3 2 6 0 5 6 4 6 6 2 5 6 8 4 6 7 4 5 3 3 3 2 1 3 4 4 4 5 4 5 5 3 5 6 4 5 6 11 17 17 23 24 25 25
8 9 1 6 5 4 5 7 1 1 3 6 4 5 7 3 6 7 7 7 4 4 2 2 2 3 3 2 5 6 7 7 4 5 3 2 2 3 6 8 16 22 24 26 26
Wind_Direction
335 345 348 342 343 336 337 341 341 336 335 335 334 329 322 320 318 327 299 280 277 254 259 274 228 254 246 245 242 250 243 248 246 258 257 274 242 244 209 246 152 164 100 194 170
335 343 346 344 337 335 337 340 336 337 336 333 332 329 326 321 310 298 272 263 268 262 254 256 256 262 233 230 235 225 234 243 263 257 263 273 276 240 168 215 141 110 120 161 165
336 339 343 343 333 326 331 331 335 338 334 331 330 332 335 329 315 233 266 309 292 287 250 257 258 259 274 244 228 248 241 255 246 262 270 305 309 302 163 221 179 160 155 163 170
334 336 334 329 323 318 314 318 325 331 330 327 324 330 337 2 306 277 303 317 311 305 252 247 248 255 259 245 234 258 257 250 262 268 275 286 305 290 264 202 225 193 188 175 176
330 328 322 313 311 304 304 308 313 321 323 323 319 320 324 270 275 273 295 311 312 283 264 240 239 237 240 249 248 242 252 258 262 261 268 285 278 281 295 209 239 173 177 178 174
322 322 320 313 305 299 297 300 306 312 316 315 314 309 318 273 266 278 292 306 311 285 259 243 235 236 268 245 261 268 253 258 272 275 257 265 273 273 281 193 159 165 173 173 174
315 316 314 309 306 302 304 309 308 309 312 306 307 307 287 266 273 285 306 303 302 289 263 247 243 228 227 243 252 269 268 278 270 273 277 254 268 247 260 176 158 162 165 171 175
311 314 314 311 308 307 308 312 309 307 304 302 298 304 263 284 281 296 307 291 284 286 251 236 238 238 232 248 181 317 293 264 256 269 277 253 260 262 238 178 165 168 169 172 175
307 312 316 315 314 316 318 315 310 307 293 308 295 273 276 289 303 314 304 308 300 281 250 219 226 216 212 196 121 169 246 233 264 236 253 277 239 251 195 180 180 176 174 171 170
306 310 313 315 321 327 328 323 326 312 336 312 260 282 244 304 311 300 328 330 306 302 138 209 212 196 212 179 218 199 218 238 242 226 224 267 228 274 172 176 183 180 174 171 170
303 308 312 318 330 337 344 15 341 309 226 255 288 272 291 306 303 281 343 324 294 200 204 203 206 213 207 212 256 294 290 269 258 257 255 240 220 213 195 191 174 176 173 171 167
300 304 311 324 337 350 6 14 298 300 304 278 262 279 295 291 307 290 335 14 306 204 201 186 239 230 234 227 242 240 246 246 277 265 267 232 230 211 186 203 179 170 171 170 166
298 301 312 329 343 358 4 308 306 338 273 289 259 278 287 290 280 298 292 164 228 274 231 232 192 327 244 217 227 231 236 247 247 277 238 188 225 203 178 203 182 177 176 173 169
293 298 304 339 13 346 321 332 322 66 327 282 208 256 307 291 268 266 265 238 227 234 244 258 224 242 217 216 203 251 246 236 217 205 184 192 207 182 165 192 180 169 171 172 175
294 289 282 321 320 344 301 327 23 70 335 278 350 304 308 275 300 220 247 223 303 260 194 258 237 246 240 225 188 236 336 187 243 197 191 209 204 194 164 190 181 171 168 170 176
296 276 240 293 351 318 312 39 52 260 279 324 324 324 306 289 283 285 247 224 272 282 234 277 212 238 282 262 200 256 295 52 258 235 195 201 206 192 177 188 170 171 174 174 177
306 264 225 184 193 297 338 47 295 284 44 309 313 330 315 294 313 296 309 282 278 317 7 278 309 278 267 268 216 248 271 196 168 72 205 232 207 271 176 177 174 175 183 179 175
315 251 223 247 251 211 72 254 285 252 246 130 223 294 284 339 333 287 268 267 171 249 296 299 301 217 198 223 309 208 224 153 201 168 189 293 215 347 17 91 174 176 178 176 172
322 234 261 234 211 164 256 270 215 263 9 319 303 262 292 205 222 311 262 327 11 7 354 335 347 189 244 325 326 187 37 3 330 44 106 208 87 27 46 47 50 158 163 168 170
154 40 233 288 192 140 256 251 247 200 274 238 283 317 326 359 211 279 329 74 357 24 357 295 309 6 341 281 209 358 102 293 285 181 209 220 174 200 173 157 132 109 134 152 158
172 218 253 202 172 202 242 252 302 198 219 257 312 299 325 346 319 306 300 48 26 339 312 283 216 284 263 38 27 1 315 272 210 126 295 146 227 329 183 170 157 147 145 150 154
139 234 212 172 217 232 234 230 309 243 204 262 271 266 273 328 307 312 334 349 22 315 304 76 297 282 53 151 171 231 108 70 288 335 270 229 5 7 59 145 145 154 150 152 158
189 184 217 172 233 217 214 240 241 223 212 222 250 233 315 297 317 330 353 93 345 312 360 344 290 313 279 237 197 241 148 206 249 271 262 351 325 63 351 120 144 139 150 153 154
185 195 149 210 264 277 291 262 222 195 278 249 270 293 275 268 247 269 301 100 14 283 306 297 283 259 241 258 291 167 192 190 302 330 326 15 110 135 205 146 133 147 152 152 154
199 243 164 195 225 223 274 302 240 217 213 234 264 238 278 293 314 266 353 280 186 239 256 72 286 9 299 247 295 272 328 170 238 264 359 325 354 124 172 168 147 151 150 152 156
215 233 209 282 359 237 220 256 233 241 167 214 225 297 290 274 278 335 351 313 8 177 293 251 285 318 277 196 263 279 260 242 217 305 299 299 325 89 138 153 144 157 161 162 164
219 241 262 284 184 213 225 213 166 257 219 271 340 321 280 307 349 308 273 285 282 315 215 271 314 353 297 303 304 293 221 193 164 216 218 259 58 69 123 148 169 169 171 171 172